Location: Cranves-Sales
(46.1875°N, 6.2911°E)
Time: 13:40:42
(UTC+00:00)

Daily predictions for brighter satellites

Satellite Brightness Start Highest point End
(mag) Time Altitude Azimuth Time Altitude Azimuth Time Altitude Azimuth
H-2A R/B 1.9 19:40:02 10° NNE 19:44:07 70° ESE 19:48:11 10° S
SL-4 R/B 3.0 19:39:56 10° WNW 19:44:28 50° NNE 19:48:43 10° E
Genesis I 3.2 19:40:43 10° SSW 19:44:43 76° SE 19:48:48 10° NE
Cosmos 1666 3.7 19:43:08 10° NNW 19:46:50 49° W 19:50:29 10° S
Cosmos 1814 Rocket 4.0 19:42:23 10° NNW 19:47:33 89° WSW 19:52:41 10° SSE
Cosmos 1980 Rocket 3.8 19:46:12 10° SE 19:49:07 14° E 19:52:03 10° ENE
JB-3 4.4 19:45:42 10° NNE 19:49:52 79° ESE 19:54:01 10° S
Cosmos 1328 Rocket 3.9 19:47:54 10° SSE 19:51:58 44° E 19:56:06 10° NNE
CZ-4 R/B 4.4 19:50:33 10° WSW 19:52:21 13° W 19:54:10 10° WNW
Meteor 1-10 Rocket 4.3 19:53:36 10° S 19:59:00 56° E 20:04:28 10° NNE
ATLAS 2AS CENTAUR R/B 4.2 19:56:00 10° SE 20:00:51 18° ESE 20:05:38 10° ENE
Resurs 1-3 4.5 19:57:24 10° S 20:01:40 49° W 20:05:57 10° NNW
PSLV R/B 3.9 19:58:24 10° NNE 20:02:29 88° ESE 20:06:31 10° SSW
NOSS 3-4 (A) 3.6 19:59:24 10° S 20:04:46 45° ESE 20:10:30 10° NE
NOSS 3-4 (C) 3.6 19:59:28 10° S 20:04:51 45° ESE 20:10:35 10° NE
Cosmos 1697 Rocket 3.1 20:04:00 10° S 20:09:16 41° ESE 20:14:34 10° NE
SPOT 1/Viking Rocket 3.6 20:05:14 10° SSE 20:10:25 83° ENE 20:15:36 10° NNW
CZ-4B R/B 1.3 20:07:32 10° N 20:10:46 81° WNW 20:13:57 10° SSW
Meteor 1-27 Rocket 4.1 20:06:39 10° SSE 20:12:05 46° E 20:17:39 10° NNE
Cosmos 1666 Rocket 3.8 20:08:38 10° NNW 20:13:00 72° W 20:17:24 10° S
Cosmos 2233 Rocket 4.4 20:07:18 10° SSW 20:13:34 69° W 20:19:54 10° N
Cosmos 1184 Rocket 4.1 20:12:18 15° SE 20:13:45 20° E 20:16:03 10° NE
Cosmos 2297 Rocket 2.3 20:08:14 10° NNW 20:13:54 81° WSW 20:19:28 10° SSE
SPOT 5 3.9 20:12:08 12° SE 20:16:34 37° ENE 20:21:20 10° N
Cosmos 1315 Rocket 3.1 20:12:36 10° NNW 20:16:42 69° W 20:20:42 10° S
BREEZE-M DEB (TANK) 2.5 20:15:59 10° WNW 20:18:09 40° N 20:20:47 10° E
Resurs 01 Rocket 2.0 20:14:43 10° S 20:19:05 66° WSW 20:23:29 10° NNW
ARGOS Delta rocket 4.2 20:15:04 10° NNE 20:20:35 88° ESE 20:26:03 10° SSW
Meteor 1-11 Rocket 3.9 20:15:23 10° N 20:21:23 76° ENE 20:27:11 11° SSE
BREEZE M DEB (TANK) 3.4 20:20:10 10° WNW 20:23:38 78° NNE 20:35:22 10° ESE
Cosmos 1633 Rocket 3.4 20:20:36 10° NNW 20:24:57 65° W 20:29:16 10° S
Cosmos 1151 Rocket 3.9 20:20:48 10° SSW 20:24:59 52° WNW 20:29:10 10° N
Cosmos 2208 Rocket 4.3 20:21:11 10° NNW 20:26:37 70° WSW 20:31:48 11° S
NOSS 3-2 (C) 4.4 20:19:54 10° NW 20:27:26 67° WSW 20:35:19 13° SSE
Cosmos 389 Rocket 2.8 20:28:16 10° N 20:31:40 48° ENE 20:33:48 20° SE
Cosmos 1470 Rocket 3.5 20:27:54 10° N 20:32:16 88° ENE 20:36:02 14° S
SJ 16-02 2.7 20:32:45 17° SE 20:34:16 20° E 20:37:30 10° NE
ATLAS 3B R/B 4.4 20:28:15 10° NNW 20:34:24 29° NNE 20:40:45 10° E
Cosmos 968 Rocket 3.9 20:30:46 10° SSW 20:35:53 65° WNW 20:41:00 10° NNE
Cosmos 1464 Rocket 4.0 20:30:07 10° S 20:36:16 67° E 20:42:23 10° NNE
ISS -2.0 20:34:12 10° WNW 20:37:14 31° N 20:40:16 10° ENE
ERS-1 Rocket 3.4 20:33:38 17° SE 20:37:17 48° ENE 20:42:06 10° N
Terra 2.7 20:34:12 17° SE 20:37:21 36° ENE 20:41:43 10° N
Geosat FO 4.4 20:36:05 20° SSE 20:38:21 85° ENE 20:41:43 10° NNW
Cosmos 405 3.3 20:35:04 10° NNW 20:38:26 61° W 20:41:11 14° S
MetOp-B 4.3 20:35:17 11° S 20:40:27 73° WSW 20:45:50 10° NNW
Cosmos 2228 Rocket 4.2 20:40:01 19° SE 20:42:11 28° E 20:46:03 10° NNE
BREEZE M DEB (TANK) 4.1 20:40:37 10° WSW 20:45:07 85° NNW 21:03:44 10° ENE
Cosmos 2219 3.3 20:40:59 10° NNW 20:46:37 74° WSW 20:50:53 18° SSE
Aureole 1 Rocket 2.2 20:44:15 12° S 20:47:22 65° ESE 20:50:23 10° NNE
Cosmos 1515 Rocket 3.5 20:43:03 10° S 20:47:24 89° W 20:51:49 10° N
CENTAUR R/B 4.2 20:40:04 10° NW 20:47:41 39° WSW 20:55:49 10° S
USA 238 DEB 4.5 20:40:39 10° NW 20:47:42 51° WSW 20:54:04 14° S
USA 238 4.5 20:40:46 10° NW 20:47:49 52° WSW 20:54:10 14° S
CZ-2C R/B 4.2 20:44:06 10° NNE 20:48:41 45° E 20:51:45 20° SSE
Ariane Rocket 4.0 20:50:01 10° S 20:54:48 42° W 20:59:38 10° NNW
Cosmos 2082 3.7 20:50:40 10° NNW 20:56:20 73° ENE 20:59:56 23° SE
Nadezhda 4 Rocket 4.0 20:51:21 10° N 20:57:38 77° E 21:02:07 20° SSE
RESURS DK-1 3.6 20:57:48 22° ESE 20:58:01 22° ESE 21:01:13 10° NE
Cosmos 1515 4.1 20:54:33 10° SSW 20:58:17 60° WNW 21:02:02 10° N
Timation 2 Rocket 4.3 20:52:06 10° NNW 20:58:37 67° ENE 21:03:12 22° SE
Cosmos 1869 Rocket 3.9 20:55:44 10° N 21:00:08 51° ENE 21:02:21 26° SE
ARIANE 5 R/B 3.1 20:59:19 25° SE 21:01:39 49° ENE 21:06:01 10° N
CARTOSAT-1 4.3 20:58:18 15° S 21:01:44 49° W 21:05:56 10° NNW
Cosmos 1536 3.5 20:58:56 10° NNW 21:02:50 50° W 21:05:46 17° SSW
SPOT 3 Rocket 4.0 20:59:27 15° S 21:03:42 56° W 21:08:47 10° NNW
Cosmos 1743 3.4 21:04:26 10° NNW 21:08:06 49° W 21:10:31 19° SSW
Cosmos 2263 Rocket 2.7 21:04:13 10° NNW 21:09:38 48° ENE 21:12:52 23° ESE
Okean 1 3.2 21:07:59 27° S 21:10:03 70° E 21:14:03 10° NNE
Cosmos 921 Rocket 3.0 21:08:25 10° NNW 21:12:59 87° ENE 21:15:10 30° SSE
Helios 1A Rocket 3.5 21:10:59 21° S 21:13:25 51° W 21:17:19 10° NNW
Meteor 1-19 Rocket 4.1 21:10:30 20° S 21:14:23 73° E 21:19:47 10° NNE
ASTRO F (AKARI) 4.2 21:16:56 42° S 21:17:46 69° WSW 21:20:52 10° NNW
Cosmos 2344 3.4 21:11:07 10° SSW 21:18:39 82° SE 21:26:20 10° NE
Cosmos 1354 Rocket 3.9 21:15:23 17° S 21:19:27 73° ESE 21:24:45 10° NNE
Cosmos 1340 3.8 21:16:15 10° SSW 21:19:46 41° WNW 21:23:21 10° N
Cosmos 2227 Rocket 3.3 21:15:02 10° NW 21:20:12 37° WSW 21:24:07 16° SSW
Cosmos 2292 Rocket 3.0 21:17:48 10° N 21:20:54 47° ENE 21:21:13 45° E
BREEZE-M DEB (TANK) 3.1 21:19:05 10° WNW 21:21:15 36° N 21:23:07 13° ENE
Cosmos 2026 Rocket 4.1 21:16:56 10° N 21:23:01 61° ENE 21:26:19 28° SSE
SL-4 R/B 2.2 21:19:43 10° WNW 21:24:09 60° SW 21:25:33 38° SSE
USA 215 3.6 21:19:38 10° ENE 21:25:49 42° SE 21:31:58 10° SSW
Cosmos 1777 Rocket 4.2 21:24:03 29° SSE 21:26:29 53° ESE 21:31:33 10° NNE
Cosmos 1707 Rocket 4.1 21:25:26 34° SE 21:26:38 41° E 21:30:49 10° NNE
Spot 2 Rocket 4.1 21:25:35 21° SSW 21:28:46 52° W 21:33:42 10° NNW
Meteor 2-4 Rocket 4.0 21:26:19 29° SSE 21:29:08 53° E 21:34:40 10° NNE
Cosmos 1975 3.0 21:27:18 10° N 21:31:20 59° ENE 21:32:28 42° SE
Cosmos 2369 3.8 21:26:38 10° SSW 21:32:16 78° WNW 21:37:58 10° NNE
Cosmos 1980 Rocket 2.2 21:26:38 10° SSW 21:32:16 88° WNW 21:37:58 10° NNE
Cosmos 44 Rocket 4.0 21:30:26 10° NNW 21:34:57 42° NE 21:37:15 25° ESE
USA 81 4.2 21:32:50 33° SSE 21:35:03 58° E 21:40:14 10° NNE
Cosmos 1627 Rocket 4.5 21:29:30 10° N 21:35:44 77° E 21:38:59 30° SSE
Cosmos 773 Rocket 3.9 21:31:00 10° NNW 21:36:16 85° WSW 21:38:32 35° SSE
Cosmos 2034 Rocket 4.4 21:30:50 12° SSW 21:36:33 65° WNW 21:42:53 10° N
Cosmos 2322 Rocket 3.5 21:37:58 21° ESE 21:38:23 21° E 21:42:32 10° NE
SAR-Lupe-4 3.5 21:37:21 10° NNE 21:40:57 71° ESE 21:41:31 57° SSE
EXPRESS MD2 3.8 21:39:08 10° WNW 21:43:13 34° SW 21:43:13 34° SW
Meteor 1-4 Rocket 4.1 21:43:16 10° NNE 21:46:03 22° ENE 21:46:14 22° ENE
Iridium 2 4.3 21:46:47 10° N 21:50:21 40° E 21:50:38 39° E
ATLAS 2AS CENTAUR R/B 2.9 21:42:58 10° SSW 21:50:45 77° SE 21:58:20 10° NE
Cosmos 1844 Rocket 4.3 21:46:07 10° N 21:50:46 26° NE 21:54:18 15° E
Cosmos 1697 Rocket 4.2 21:48:08 10° WSW 21:53:18 35° NW 21:58:30 10° NNE
Cosmos 1726 4.4 21:51:30 10° NE 21:53:26 14° ENE 21:53:53 13° ENE
Meteor 1-18 Rocket 4.3 21:50:24 26° SSW 21:53:48 80° WNW 21:59:29 10° N
SPOT 5 4.3 21:51:21 18° SSW 21:54:37 33° W 21:59:21 10° NNW
Cosmos 2227 4.3 21:51:19 10° NNW 21:57:06 74° ENE 21:59:27 37° SE
Cosmos 482 Debris 4.3 21:54:30 10° WNW 21:57:49 81° NNE 21:59:28 39° ESE
Cosmos 1733 Rocket 3.1 21:54:27 10° N 21:58:54 72° E 21:59:56 51° SSE
ALOS 2 4.2 21:58:43 20° E 22:00:03 23° ENE 22:03:31 10° NNE
USA 267 3.8 21:55:37 12° ESE 22:01:39 57° NNE 22:08:02 10° NW
Cosmos 1538 Rocket 4.0 21:57:59 10° NNW 22:03:15 71° ENE 22:04:59 42° SE
Cosmos 2279 Rocket 4.0 22:03:28 36° SSE 22:06:03 70° E 22:12:15 10° NNE
Meteor 2-8 Rocket 4.4 22:03:30 31° S 22:06:38 86° W 22:12:46 10° N
Cosmos 1862 Rocket 3.5 22:07:49 55° SSE 22:08:40 72° E 22:13:09 10° NNE
Cosmos 1378 4.1 22:10:25 32° WSW 22:11:27 41° WNW 22:14:57 10° N
SJ 16-02 2.4 22:09:38 18° SW 22:12:31 42° WNW 22:16:42 10° N
ISS -3.5 22:11:04 10° WNW 22:14:24 63° NNE 22:14:26 63° NNE
SL-16 R/B 2.3 22:13:00 43° SSE 22:14:31 56° ESE 22:20:04 10° NE
Terra 3.3 22:13:05 20° SW 22:15:10 28° W 22:19:16 10° NW
Cosmos 1733 3.5 22:12:11 10° N 22:15:55 51° ENE 22:16:00 51° E
Cosmos 158 Rocket 4.1 22:14:46 10° NNW 22:19:48 61° WSW 22:21:14 44° SSW
Spot 4 4.1 22:19:06 44° ESE 22:20:18 58° ENE 22:25:02 10° N
Cosmos 2180 Rocket 4.4 22:21:55 41° SSE 22:24:06 73° E 22:30:15 10° NNE
ATLAS 3B R/B 2.9 22:18:52 10° NW 22:26:16 79° NE 22:30:15 31° SE
SL-24 R/B - RUBIN 2 3.4 22:21:58 10° NW 22:26:23 84° SW 22:27:02 64° SSE
NOSS 2-1 (E) 4.1 22:28:40 31° NE 22:28:40 31° NE 22:30:34 10° NE
Cosmos 1346 Rocket 3.4 22:26:44 41° WSW 22:27:39 50° WNW 22:31:35 10° N
Cosmos 2278 4.4 22:28:06 15° SW 22:32:44 50° WNW 22:38:16 10° NNE
ATLAS CENTAUR R/B 3.7 22:31:17 10° NNW 22:35:21 25° NE 22:38:51 12° E
Cosmos 1937 Rocket 4.5 22:35:24 30° ESE 22:35:39 30° E 22:40:11 10° NE
RESURS DK-1 3.6 22:33:35 22° WSW 22:35:47 39° NW 22:39:41 10° NNE
GENESIS II 4.2 22:37:16 70° ENE 22:37:16 70° ENE 22:40:50 10° NE
CZ-4C R/B 4.3 22:36:50 10° NNW 22:42:58 34° NE 22:50:08 10° E
Cosmos 1680 Rocket 3.9 22:39:41 10° NNW 22:44:56 55° ENE 22:46:29 40° ESE
Cosmos 2360 Rocket 2.5 22:44:33 44° SE 22:45:17 46° ESE 22:50:40 10° NE
Cosmos 1655 Rocket 3.9 22:44:20 10° N 22:50:38 83° E 22:52:38 46° SSE
Cosmos 1842 4.2 22:53:39 37° ENE 22:53:39 37° ENE 22:56:52 10° NNE
Cosmos 2263 Rocket 3.4 22:48:37 10° NW 22:53:18 28° WSW 22:54:33 26° SW
Cosmos 1441 Rocket 3.8 22:54:07 45° W 22:54:18 46° WNW 22:57:54 10° N
Cosmos 1356 4.2 22:58:53 45° NW 22:58:53 45° NW 23:01:38 10° N
Gblst 52 Del rocket 4.4 22:58:12 49° SSE 22:58:57 53° SE 23:04:31 10° ENE
Cosmos 990 Rocket 3.9 22:57:57 53° SSW 22:59:14 87° WNW 23:04:32 10° NNE
Cosmos 1898 Rocket 3.5 22:58:42 56° SSE 22:59:33 66° ESE 23:04:51 10° NNE
NOSS 2-1 (C) 3.9 23:03:56 42° NW 23:03:56 42° NW 23:07:01 10° NNE
NOSS 2-1 (D) 3.9 23:05:15 40° NW 23:05:15 40° NW 23:08:21 10° NNE
Okean 1-7 2.9 23:06:11 71° SW 23:06:32 77° W 23:10:57 10° N
USA 215 3.5 23:02:32 10° NE 23:09:03 69° NNW 23:15:34 10° WSW
ERS-2 2.3 23:05:31 10° NNE 23:08:43 68° N 23:08:43 68° N
Meteor 1-23 Rocket 4.2 23:08:20 52° S 23:09:49 80° E 23:15:40 10° NNE
Meteor 2-10 4.2 23:05:12 10° NNW 23:10:27 60° W 23:11:25 50° SW
Cosmos 2333 Rocket 2.6 23:14:42 43° SE 23:15:23 45° ESE 23:20:46 10° NE
PSLV R/B 4.4 23:11:38 10° NNE 23:15:42 38° E 23:15:42 38° E
Cosmos 44 Rocket 4.4 23:12:15 10° NW 23:15:56 28° WSW 23:15:56 28° WSW
Cosmos 1703 Rocket 3.7 23:17:22 59° WSW 23:17:50 64° W 23:22:16 10° N
Cosmos 2322 4.5 23:18:52 35° ESE 23:19:32 36° ESE 23:24:43 10° NE
Meteor 1-4 Rocket 4.4 23:18:01 10° NW 23:20:13 22° WNW 23:20:13 22° WNW
Cosmos 2322 Rocket 2.5 23:19:43 36° SW 23:21:55 63° WNW 23:27:31 10° NNE
Iridium 4 Rocket 3.8 23:22:14 10° NNW 23:26:27 43° W 23:27:03 41° WSW
Cosmos 1766 4.1 23:23:54 10° NNW 23:27:21 42° W 23:27:21 42° W
Cosmos 1726 3.0 23:25:11 10° NNW 23:28:10 41° WNW 23:28:10 41° WNW
SL-08 ROCKET BODY 4.4 23:24:22 10° N 23:30:17 72° E 23:31:58 48° SSE
Cosmos 2242 Rocket 3.8 23:31:12 56° WSW 23:31:44 61° WNW 23:36:17 10° N
STPSAT 2 (USA 217) 4.4 23:31:46 75° SW 23:32:06 82° WNW 23:36:38 10° NNE
Cosmos 1782 Rocket 3.7 23:28:29 10° NNW 23:32:47 60° W 23:32:52 60° WSW
Okean 3 3.9 23:33:54 49° W 23:34:10 50° WNW 23:38:18 10° N
Cosmos 1844 Rocket 2.7 23:29:33 10° NNW 23:35:04 60° WSW 23:35:57 53° SSW
Cosmos 1674 3.9 23:36:22 31° ENE 23:36:22 31° ENE 23:39:20 10° NNE
ALOS 2 3.3 23:36:07 39° W 23:36:09 39° W 23:40:18 10° NNW
Cosmos 2151 Rocket 4.5 23:34:44 10° N 23:38:53 39° ENE 23:39:38 36° E
ADEOS Rocket 2.8 23:37:58 52° SSW 23:39:13 69° WSW 23:45:04 10° NNW
Cosmos 1626 3.5 23:41:56 30° ENE 23:41:56 30° ENE 23:44:47 10° NNE
ATLAS 2AS CENTAUR R/B 4.3 23:35:20 10° W 23:42:24 37° NW 23:49:13 10° NNE
Okean 2 Rocket 3.6 23:39:34 10° N 23:44:00 51° ENE 23:44:41 46° ESE
USA 267 3.3 23:42:55 44° S 23:44:41 57° SW 23:51:08 10° WNW
Cosmos 1844 3.8 23:40:10 10° NNW 23:45:54 60° WSW 23:46:57 51° SSW
Cosmos 2219 Rocket 2.2 23:50:24 54° SSE 23:51:28 66° ESE 23:57:01 10° NNE
Cosmos 1461 4.0 23:50:22 10° NNW 23:54:18 41° NE 23:56:05 27° E
Cosmos 1300 Rocket 3.5 23:51:18 10° NNW 23:55:37 65° W 23:55:42 65° WSW
Cosmos 1238 Rocket 3.7 23:53:21 10° N 23:55:22 32° NE 23:55:22 32° NE
